This demonstration page uses our WeatherBlox Daily Observations layout. Learn more.

Left ArrowRight Arrow

47.50024, -111.30081

Hourly Observations for May 5, 2019

Temp ( °F °C ) Dew Point ( °F °C ) Humidity (%) Winds ( mph kmh ) Pressure ( in mb ) Visibility ( mi km ) Precip ( " mm )
12:39 am 00:39 Cloudy 37 2.8 33 0.6 86 86 NNE 15 24 30.01 1016 10 16 0.00 0.00
12:53 am 00:53 Cloudy 37 2.8 33 0.6 86 86 N 13 20 29.97 1015 10 16 0.00 0.00
1:43 am 01:43 Cloudy 35 1.7 33 0.6 93 93 NNE 13 20 30.04 1017 10 16 0.00 0.00
1:53 am 01:53 Cloudy 35 1.7 33 0.6 93 93 NNE 10 17 29.98 1015 10 16 0.00 0.00
2:53 am 02:53 Cloudy with Light Wintry Mix 33 0.6 33 0.6 100 100 N 10 17 29.99 1016 3 4 0.00 0.03
3:16 am 03:16 Cloudy with Light Snow 33 0.6 33 0.6 100 100 NNE 9 15 30.06 1018 2 3 0.00 0.03
3:53 am 03:53 Cloudy with Light Snow 32 0 32 0 100 100 N 10 17 30.00 1016 2 3 0.01 0.25
4:02 am 04:02 Cloudy with Light Snow 32 0 32 0 100 100 N 10 17 30.07 1018 2 3 0.01 0.25
4:17 am 04:17 Cloudy with Light Snow 32 0 32 0 100 100 N 8 13 30.07 1018 2 3 0.02 0.51
4:28 am 04:28 Cloudy with Light Snow 32 0 32 0 100 100 NNE 12 19 30.07 1018 1 2 0.03 0.76
4:53 am 04:53 Cloudy with Light Snow 31 -0.6 31 -0.6 100 100 NNE 8 13 30.01 1016 2 3 0.05 1.27
5:03 am 05:03 Cloudy with Light Snow 31 -0.6 31 -0.6 100 100 N 10 17 30.08 1019 2 3 0.00 0.03
5:21 am 05:21 Cloudy with Light Snow 31 -0.6 31 -0.6 100 100 NNE 13 20 30.08 1019 3 5 0.01 0.25
5:35 am 05:35 Cloudy with Light Snow 31 -0.6 31 -0.6 100 100 NNE 12 19 30.08 1019 2 3 0.01 0.25
5:53 am 05:53 Cloudy with Light Snow 31 -0.6 31 -0.6 100 100 N 10 17 30.02 1017 2 3 0.01 0.25
6:14 am 06:14 Cloudy with Light Snow 31 -0.6 31 -0.6 100 100 NNE 12 19 30.09 1019 2 2 0.01 0.25
6:44 am 06:44 Cloudy with Light Snow 30 -1.1 30 -1.1 100 100 NNE 10 17 30.11 1020 1 1 0.03 0.76
6:53 am 06:53 Cloudy with Light Snow 30 -1.1 30 -1.1 100 100 NNE 9 15 30.04 1017 1 1 0.04 1.02
7:04 am 07:04 Cloudy with Light Snow 30 -1.1 30 -1.1 100 100 NNE 13 20 30.11 1020 1 1 0.00 0.03
7:25 am 07:25 Cloudy with Light Snow 30 -1.1 30 -1.1 100 100 N 12 19 30.12 1020 1 2 0.01 0.25
7:53 am 07:53 Cloudy with Light Snow 30 -1.1 30 -1.1 100 100 NNE 10 17 30.06 1018 1 2 0.02 0.51
8:40 am 08:40 Cloudy with Snow 30 -1.1 30 -1.1 100 100 NNE 13 20 30.13 1020 1 1 0.01 0.25
8:49 am 08:49 Mostly Cloudy with Heavy Snow 30 -1 30 -1 100 100 NNE 12 19 30.14 1021 0 0 0.02 0.51
8:53 am 08:53 Mostly Cloudy with Heavy Snow 30 -1.1 30 -1.1 100 100 NNE 12 19 30.09 1019 0 0 0.03 0.76
9:17 am 09:17 Cloudy with Light Snow 30 -1.1 30 -1.1 100 100 NNE 12 19 30.14 1021 1 2 0.04 1.02
9:31 am 09:31 Cloudy with Light Snow 31 -0.6 30 -1.1 96 96 NE 12 19 30.13 1020 2 2 0.04 1.02
9:53 am 09:53 Cloudy with Light Snow 31 -0.6 30 -1.1 96 96 NE 9 15 30.09 1019 2 3 0.05 1.27
10:50 am 10:50 Cloudy with Light Snow 32 0 30 -1 93 93 NNE 10 17 30.12 1020 5 8 0.00 0.03
10:53 am 10:53 Cloudy with Light Snow 32 0 31 -0.6 96 96 NE 8 13 30.11 1020 6 10 0.00 0.03
11:15 am 11:15 Cloudy with Light Snow 32 0 31 -0.6 96 96 NE 9 15 30.12 1020 2 3 0.00 0.03
11:24 am 11:24 Cloudy with Light Snow 32 0 31 -0.6 96 96 NE 9 15 30.13 1020 3 5 0.00 0.03
11:53 am 11:53 Cloudy 32 0 31 -0.6 96 96 NE 9 15 30.11 1020 10 16 0.00 0.03
12:53 pm 12:53 Cloudy 34 1.1 32 0 92 92 NE 6 9 30.10 1019 10 16 0.00 0.00
1:51 pm 13:51 Cloudy 36 2 34 1 93 93 ENE 6 9 30.07 1018 10 16 0.00 0.00
1:53 pm 13:53 Cloudy 36 2.2 33 0.6 89 89 NE 7 11 30.09 1019 10 16 0.00 0.00
2:44 pm 14:44 Cloudy 37 2.8 33 0.6 86 86 Calm 30.05 1018 10 16 0.00 0.00
2:53 pm 14:53 Cloudy 37 2.8 32 0 82 82 Calm 30.08 1019 10 16 0.00 0.00
3:53 pm 15:53 Cloudy 39 3.9 33 0.6 79 79 ENE 5 7 30.07 1018 10 16 0.00 0.00
4:53 pm 16:53 Cloudy 41 5 34 1.1 76 76 ENE 8 13 30.06 1018 10 16 0.00 0.00
5:22 pm 17:22 Cloudy 41 5 33 0.6 73 73 NE 9 15 30.01 1016 10 16 0.00 0.00
5:31 pm 17:31 Cloudy 41 5 33 0.6 73 73 NNE 8 13 30.00 1016 10 16 0.00 0.00
5:53 pm 17:53 Cloudy 40 4.4 33 0.6 77 77 ENE 9 15 30.06 1018 10 16 0.00 0.00
6:53 pm 18:53 Cloudy 38 3.3 34 1.1 86 86 NNE 9 15 30.07 1018 10 16 0.00 0.00
7:53 pm 19:53 Cloudy 38 3.3 33 0.6 83 83 NE 12 19 30.08 1019 10 16 0.00 0.00
8:53 pm 20:53 Cloudy 37 2.8 33 0.6 86 86 NNE 9 15 30.10 1019 10 16 0.00 0.00
9:53 pm 21:53 Cloudy with Light Rain 36 2.2 34 1.1 93 93 NE 12 19 30.11 1020 10 16 0.00 0.03
10:53 pm 22:53 Cloudy 36 2.2 33 0.6 89 89 NE 9 15 30.11 1020 10 16 0.00 0.03
11:53 pm 23:53 Cloudy 36 2.2 33 0.6 89 89 NNE 7 11 30.12 1020 10 16 0.00 0.00

Powered by AerisWeather